Temp
-6 -6 -7 -7 -7 -7 -7 -7 -7 -7 -7 -7 -7 -7 -7 -7 -7 -7 -7 -7 -7 -7 -7 -7 -7 -8 -8 -8 -8 -8 -8 -8 -8 -8 -8 -8 -8 -8 -8 -8 -8 -8
-6 -6 -7 -7 -7 -7 -7 -7 -7 -7 -7 -7 -7 -7 -7 -7 -7 -7 -7 -7 -7 -7 -7 -7 -7 -8 -8 -8 -8 -8 -8 -9 -9 -9 -9 -9 -9 -9 -8 -8 -9 -9
-7 -7 -7 -7 -7 -7 -7 -7 -7 -7 -7 -7 -7 -7 -7 -7 -7 -7 -7 -7 -7 -7 -7 -7 -8 -8 -8 -8 -8 -8 -9 -9 -9 -9 -10 -9 -9 -9 -9 -9 -9 -9
-7 -7 -7 -7 -7 -7 -7 -7 -7 -7 -7 -7 -7 -7 -7 -7 -7 -7 -8 -8 -8 -8 -8 -8 -8 -8 -8 -8 -8 -9 -9 -9 -9 -9 -10 -10 -9 -9 -9 -9 -9 -9
-7 -7 -7 -7 -7 -7 -7 -7 -7 -7 -7 -7 -7 -7 -7 -7 -7 -8 -8 -8 -8 -8 -8 -8 -8 -9 -9 -9 -9 -9 -9 -9 -9 -9 -10 -10 -10 -9 -10 -10 -9 -9
-7 -7 -7 -7 -7 -7 -7 -7 -7 -7 -7 -7 -7 -7 -7 -7 -7 -8 -8 -8 -8 -8 -9 -9 -9 -9 -9 -9 -9 -9 -9 -9 -9 -9 -10 -10 -9 -9 -9 -10 -10 -10
-7 -7 -7 -7 -7 -7 -7 -7 -7 -7 -7 -7 -7 -7 -7 -7 -7 -8 -8 -8 -8 -8 -9 -9 -9 -9 -9 -9 -9 -9 -9 -9 -9 -9 -9 -9 -9 -9 -9 -9 -10 -10
-7 -7 -7 -7 -7 -7 -7 -7 -7 -7 -7 -8 -8 -8 -8 -8 -8 -8 -8 -8 -8 -8 -9 -9 -9 -9 -9 -9 -9 -9 -9 -9 -9 -9 -9 -9 -9 -9 -9 -9 -10 -10
-7 -7 -7 -7 -7 -7 -7 -7 -7 -7 -8 -8 -8 -8 -8 -8 -8 -8 -8 -8 -8 -8 -8 -8 -8 -9 -9 -9 -9 -9 -9 -9 -8 -8 -8 -9 -9 -9 -9 -9 -10 -10
-7 -7 -7 -7 -7 -7 -7 -7 -7 -8 -8 -8 -8 -8 -8 -8 -8 -8 -8 -8 -8 -8 -8 -8 -8 -9 -9 -9 -9 -9 -9 -8 -8 -8 -8 -9 -9 -9 -9 -9 -9 -10
-7 -7 -7 -7 -7 -7 -7 -7 -8 -8 -8 -8 -8 -8 -8 -8 -8 -8 -8 -8 -8 -8 -8 -8 -8 -8 -9 -9 -9 -8 -8 -8 -7 -7 -8 -8 -9 -9 -9 -9 -9 -10
-7 -7 -7 -7 -7 -7 -7 -7 -8 -8 -8 -8 -9 -8 -8 -8 -8 -8 -8 -8 -8 -8 -8 -9 -8 -8 -8 -9 -8 -8 -7 -7 -7 -7 -8 -8 -9 -9 -9 -9 -9 -9
-7 -7 -7 -7 -7 -7 -7 -8 -8 -8 -8 -8 -9 -8 -8 -8 -8 -8 -8 -8 -8 -8 -8 -8 -8 -8 -8 -8 -8 -7 -7 -7 -7 -7 -8 -9 -9 -9 -9 -9 -9 -9
-7 -7 -7 -7 -7 -7 -7 -8 -8 -8 -8 -8 -9 -9 -8 -8 -8 -8 -8 -8 -8 -8 -8 -8 -8 -8 -8 -8 -8 -8 -8 -7 -8 -8 -8 -9 -9 -9 -9 -9 -9 -9
-7 -7 -7 -7 -7 -7 -7 -8 -8 -8 -8 -8 -8 -9 -9 -8 -8 -8 -8 -8 -8 -8 -8 -8 -8 -8 -8 -8 -8 -8 -8 -8 -8 -8 -8 -9 -9 -9 -9 -9 -9 -9
-7 -7 -7 -7 -7 -7 -8 -8 -8 -8 -8 -8 -8 -8 -9 -8 -8 -8 -9 -8 -8 -8 -8 -8 -8 -8 -8 -8 -8 -8 -8 -8 -8 -8 -8 -9 -9 -9 -9 -9 -9 -9
-7 -7 -7 -7 -8 -8 -8 -8 -8 -8 -8 -8 -8 -8 -8 -9 -9 -9 -9 -9 -9 -9 -8 -8 -8 -8 -8 -8 -8 -8 -8 -8 -8 -8 -9 -9 -9 -9 -9 -9 -9 -9
-7 -7 -7 -8 -8 -8 -9 -9 -9 -8 -8 -8 -8 -8 -8 -9 -9 -9 -9 -9 -9 -9 -9 -8 -8 -8 -8 -8 -8 -8 -8 -8 -8 -8 -9 -9 -9 -9 -9 -9 -9 -10
-7 -7 -8 -8 -8 -9 -9 -9 -9 -9 -8 -8 -8 -8 -9 -9 -9 -9 -9 -9 -9 -9 -9 -9 -8 -8 -8 -8 -8 -8 -8 -8 -8 -8 -9 -9 -9 -9 -9 -9 -9 -10
-7 -8 -8 -8 -8 -9 -9 -9 -9 -9 -9 -9 -9 -9 -9 -9 -9 -9 -9 -9 -9 -9 -9 -9 -9 -8 -9 -9 -9 -9 -9 -8 -8 -8 -8 -9 -9 -9 -9 -9 -10 -10
-8 -8 -8 -8 -9 -9 -9 -9 -9 -9 -9 -9 -9 -9 -9 -9 -9 -9 -9 -9 -9 -9 -9 -9 -9 -9 -9 -9 -9 -9 -9 -9 -9 -9 -8 -9 -9 -9 -9 -9 -10 -10
-8 -8 -8 -8 -9 -9 -9 -9 -9 -10 -9 -9 -9 -9 -9 -9 -9 -9 -9 -9 -9 -9 -9 -10 -9 -9 -9 -10 -10 -9 -9 -9 -9 -9 -9 -9 -9 -9 -10 -10 -10 -10
-8 -8 -8 -8 -9 -9 -9 -9 -9 -9 -9 -9 -9 -9 -9 -9 -9 -9 -9 -9 -9 -9 -10 -10 -10 -10 -10 -10 -10 -10 -9 -9 -9 -9 -9 -9 -10 -10 -10 -10 -10 -10
-8 -8 -8 -8 -9 -9 -9 -9 -8 -8 -8 -8 -8 -9 -9 -9 -9 -9 -9 -9 -9 -9 -10 -10 -10 -10 -10 -10 -10 -10 -10 -9 -9 -9 -9 -10 -10 -10 -10 -10 -11 -11
-8 -8 -8 -8 -9 -9 -9 -8 -8 -8 -8 -8 -8 -8 -8 -8 -9 -9 -9 -9 -9 -9 -9 -9 -10 -10 -10 -10 -10 -10 -10 -9 -9 -9 -10 -10 -10 -10 -10 -10 -11 -11
-8 -8 -8 -8 -9 -9 -9 -8 -8 -8 -8 -8 -8 -8 -8 -8 -9 -9 -9 -9 -9 -9 -9 -9 -10 -10 -10 -10 -10 -10 -10 -9 -9 -10 -10 -10 -10 -10 -10 -11 -11 -11
Height
5911 5911 5911 5911 5911 5910 5910 5910 5909 5909 5908 5908 5908 5907 5906 5905 5904 5902 5901 5900 5899 5898 5897 5896 5895 5894 5893 5892 5892 5891 5890 5889 5888 5888 5887 5886 5885 5884 5884 5883 5882 5882
5909 5909 5909 5909 5909 5909 5908 5908 5908 5907 5907 5906 5905 5905 5904 5903 5901 5900 5899 5898 5897 5896 5895 5894 5893 5893 5892 5891 5889 5888 5887 5886 5885 5884 5883 5883 5882 5881 5881 5880 5880 5879
5906 5906 5907 5907 5907 5907 5906 5906 5906 5905 5905 5904 5903 5902 5902 5901 5900 5899 5898 5897 5896 5895 5893 5892 5891 5891 5890 5889 5888 5886 5885 5883 5882 5881 5880 5880 5879 5878 5878 5877 5877 5876
5904 5904 5905 5905 5905 5904 5904 5904 5904 5904 5903 5902 5901 5901 5900 5899 5898 5897 5896 5895 5894 5893 5892 5891 5890 5888 5887 5886 5885 5884 5882 5880 5878 5877 5876 5876 5876 5875 5874 5874 5873 5873
5902 5902 5902 5902 5902 5902 5902 5902 5902 5902 5901 5900 5900 5899 5898 5897 5896 5895 5894 5893 5892 5891 5890 5888 5887 5886 5884 5882 5881 5880 5879 5877 5875 5874 5873 5872 5871 5871 5871 5870 5870 5869
5900 5900 5900 5900 5900 5899 5899 5900 5900 5900 5898 5898 5898 5897 5896 5895 5894 5893 5892 5891 5890 5889 5887 5885 5884 5883 5881 5879 5877 5876 5875 5874 5872 5871 5869 5868 5867 5867 5867 5866 5866 5865
5897 5898 5898 5898 5897 5897 5898 5898 5898 5897 5896 5896 5895 5894 5894 5893 5892 5891 5890 5889 5888 5887 5885 5883 5881 5879 5878 5876 5874 5872 5871 5870 5868 5866 5865 5864 5864 5863 5863 5862 5861 5860
5895 5895 5895 5895 5895 5895 5896 5896 5895 5894 5893 5894 5894 5893 5892 5892 5891 5889 5888 5887 5885 5884 5882 5880 5878 5876 5873 5872 5870 5868 5866 5865 5864 5862 5861 5861 5861 5860 5859 5858 5857 5856
5893 5893 5893 5893 5893 5893 5893 5893 5892 5892 5892 5892 5891 5891 5891 5890 5889 5887 5886 5884 5882 5880 5879 5877 5874 5872 5869 5867 5866 5864 5863 5861 5860 5859 5858 5857 5857 5856 5855 5854 5853 5852
5890 5891 5891 5891 5891 5891 5891 5891 5890 5890 5890 5890 5889 5889 5889 5888 5886 5884 5883 5881 5879 5878 5876 5874 5871 5868 5866 5864 5862 5861 5859 5857 5856 5855 5854 5854 5853 5853 5852 5851 5850 5849
5888 5888 5888 5888 5888 5889 5890 5890 5889 5888 5888 5888 5887 5887 5887 5885 5883 5881 5880 5878 5876 5875 5873 5871 5868 5865 5862 5860 5858 5858 5856 5855 5853 5852 5851 5850 5850 5849 5848 5847 5846 5845
5886 5886 5886 5886 5886 5887 5888 5888 5886 5886 5887 5886 5884 5883 5883 5883 5880 5879 5877 5875 5873 5871 5869 5867 5864 5861 5858 5855 5855 5855 5854 5852 5851 5849 5848 5847 5846 5846 5845 5844 5843 5842
5883 5883 5884 5884 5884 5885 5886 5885 5883 5882 5883 5883 5881 5880 5879 5879 5877 5876 5874 5872 5870 5868 5865 5863 5862 5860 5857 5854 5853 5853 5851 5850 5848 5847 5845 5844 5843 5842 5841 5840 5839 5838
5881 5881 5881 5881 5881 5883 5884 5883 5880 5879 5879 5880 5879 5877 5875 5875 5874 5872 5870 5869 5867 5865 5863 5861 5859 5858 5856 5853 5852 5851 5849 5847 5846 5844 5842 5841 5840 5838 5837 5836 5835 5833
5878 5879 5879 5879 5879 5880 5881 5879 5877 5876 5876 5876 5876 5875 5873 5871 5870 5869 5867 5865 5864 5863 5860 5859 5857 5855 5853 5851 5849 5848 5846 5844 5843 5841 5839 5838 5836 5834 5833 5832 5831 5829
5876 5876 5876 5877 5877 5877 5877 5875 5874 5873 5872 5872 5872 5871 5869 5868 5866 5864 5863 5861 5860 5859 5857 5856 5854 5852 5850 5847 5845 5844 5842 5841 5839 5838 5836 5834 5832 5831 5829 5828 5826 5825
5874 5874 5874 5874 5874 5873 5873 5872 5871 5871 5870 5869 5868 5866 5865 5863 5862 5860 5859 5857 5856 5855 5853 5852 5850 5848 5846 5843 5841 5840 5838 5837 5836 5834 5832 5831 5829 5827 5826 5824 5822 5820
5872 5872 5872 5871 5871 5870 5870 5869 5868 5867 5866 5866 5865 5863 5861 5859 5858 5856 5854 5853 5851 5850 5849 5847 5846 5844 5842 5839 5837 5836 5834 5833 5831 5829 5828 5827 5825 5823 5822 5820 5818 5817
5869 5869 5869 5868 5868 5867 5867 5865 5864 5863 5862 5861 5860 5859 5858 5856 5854 5853 5851 5849 5847 5846 5844 5843 5841 5839 5838 5835 5833 5832 5830 5829 5827 5825 5823 5822 5820 5819 5818 5815 5813 5812
5866 5866 5866 5865 5865 5864 5863 5862 5860 5859 5858 5857 5856 5855 5853 5852 5850 5848 5847 5845 5843 5841 5839 5838 5836 5835 5834 5832 5829 5828 5826 5824 5822 5821 5819 5817 5816 5815 5813 5810 5809 5807
5862 5862 5862 5862 5861 5860 5859 5858 5857 5855 5854 5853 5852 5850 5849 5847 5844 5843 5841 5840 5838 5836 5834 5833 5831 5830 5829 5828 5825 5823 5821 5819 5818 5816 5815 5813 5811 5810 5808 5806 5805 5802
5859 5858 5858 5858 5857 5856 5855 5854 5853 5851 5850 5848 5847 5845 5843 5841 5839 5838 5836 5835 5833 5831 5829 5828 5826 5824 5824 5824 5821 5818 5816 5814 5813 5811 5810 5808 5807 5805 5804 5802 5800 5798
5854 5854 5854 5854 5853 5852 5851 5850 5848 5847 5845 5843 5841 5839 5837 5836 5834 5833 5831 5830 5828 5826 5824 5822 5820 5818 5819 5819 5816 5813 5811 5810 5808 5807 5805 5803 5802 5801 5799 5797 5795 5794
5850 5850 5850 5849 5849 5848 5847 5845 5844 5842 5841 5839 5836 5834 5832 5831 5830 5828 5826 5824 5823 5821 5819 5817 5815 5812 5812 5813 5811 5809 5807 5805 5803 5801 5800 5798 5797 5795 5793 5791 5789 5788
5846 5845 5845 5844 5844 5843 5842 5841 5840 5838 5836 5834 5832 5830 5828 5827 5825 5823 5821 5819 5817 5815 5813 5812 5810 5807 5807 5807 5806 5804 5802 5799 5797 5795 5794 5793 5792 5790 5788 5786 5784 5782
5841 5840 5840 5839 5839 5838 5837 5836 5835 5833 5832 5830 5828 5826 5824 5822 5820 5818 5815 5813 5811 5809 5807 5806 5804 5802 5802 5802 5802 5799 5796 5793 5791 5790 5788 5787 5786 5784 5782 5781 5779 5777
Wind_Speed
15 14 14 14 15 14 13 13 13 13 13 13 13 14 15 16 17 18 19 20 21 22 22 23 23 25 26 26 27 28 28 29 28 27 25 25 25 25 24 23 23 23
15 15 15 15 15 14 14 13 14 14 14 14 14 15 16 17 18 19 19 21 22 24 25 25 25 26 27 28 29 30 31 31 32 31 28 26 26 26 25 24 23 24
17 16 16 15 15 14 14 14 14 14 14 15 16 17 18 18 20 21 22 22 23 24 26 27 28 28 28 29 30 31 32 32 32 32 31 28 27 28 28 27 25 25
18 17 16 15 15 15 15 14 14 15 15 16 18 19 20 21 22 24 25 24 25 26 27 28 29 30 31 32 32 32 32 31 32 31 31 30 29 29 30 30 28 27
19 18 17 16 15 15 15 14 15 16 18 18 19 20 21 22 23 25 27 27 28 29 30 30 30 32 34 35 35 35 34 32 31 31 31 30 30 31 32 32 31 31
19 18 17 16 15 15 15 15 16 17 19 20 20 20 21 22 24 26 28 29 30 31 32 33 34 35 35 35 36 38 37 33 31 31 30 31 31 31 31 32 33 33
19 18 18 17 16 16 17 17 17 18 20 20 20 21 21 21 24 26 27 28 30 31 32 33 36 36 36 37 38 40 39 34 31 30 30 30 30 29 30 32 33 34
19 18 17 17 17 17 16 16 18 19 20 20 21 23 23 23 25 26 25 27 28 29 31 33 36 38 39 39 40 41 39 34 30 30 30 29 29 29 31 32 33 34
19 18 17 17 17 16 16 17 19 20 20 22 23 23 22 23 24 25 25 27 28 30 31 33 36 39 40 41 40 38 35 32 28 28 30 29 29 29 31 32 33 34
18 18 18 17 17 17 18 19 20 21 21 23 24 22 21 21 23 25 26 27 29 31 31 33 36 38 39 40 38 33 29 26 24 26 30 31 30 30 31 32 33 34
18 18 18 18 18 18 18 18 19 20 20 21 24 24 22 22 25 25 27 29 30 31 32 34 37 40 42 40 34 26 22 22 23 26 30 32 33 32 32 33 34 34
18 18 19 19 19 18 17 17 19 19 18 19 24 25 23 23 25 26 27 29 30 31 33 35 36 39 38 30 23 20 20 23 26 28 31 33 34 34 33 34 34 34
19 19 20 20 20 19 18 18 20 21 20 20 22 24 24 23 25 27 28 29 30 31 34 36 35 31 25 19 18 21 23 24 27 30 31 32 33 34 34 34 34 35
20 20 20 19 20 20 19 18 21 24 24 23 23 26 28 27 27 28 30 30 29 30 33 35 33 28 24 24 26 27 26 26 27 30 30 30 31 32 34 34 34 36
21 21 20 20 21 20 19 19 22 25 26 26 25 27 30 30 30 30 32 32 31 30 31 33 32 29 29 30 30 29 29 29 30 31 31 31 31 32 33 34 34 36
21 21 21 22 21 19 19 21 23 26 28 28 29 30 31 32 33 33 35 35 34 32 31 30 30 31 32 33 32 30 30 30 32 33 33 33 33 33 34 34 34 37
21 21 21 20 20 19 20 22 24 26 27 28 30 33 35 36 36 36 38 39 38 36 33 30 30 32 34 35 34 31 29 31 33 35 36 36 36 35 35 35 36 37
21 21 19 19 20 20 22 24 26 28 29 30 31 34 36 38 40 39 40 41 40 37 34 31 30 31 32 33 32 31 31 33 35 36 37 38 38 37 36 37 38 39
21 21 20 21 22 23 25 27 29 31 32 33 35 37 38 40 41 41 41 42 41 38 35 33 31 31 30 30 32 33 35 36 36 36 36 37 38 37 37 38 39 39
23 23 23 24 24 26 28 30 32 33 34 36 38 40 41 42 43 43 42 42 40 38 35 33 32 31 29 30 34 35 37 38 36 34 34 36 37 37 37 37 38 39
26 25 26 26 26 28 29 31 34 36 38 40 42 43 45 45 45 45 43 41 38 36 35 33 33 32 30 31 34 36 37 37 35 33 33 35 36 37 37 37 37 37
27 28 28 28 29 30 31 32 35 38 41 43 45 47 48 47 47 45 42 40 37 35 35 34 35 35 32 31 34 36 36 35 34 33 34 35 36 37 38 39 40 40
29 31 31 31 32 33 34 35 37 39 42 45 47 49 50 49 48 45 43 41 39 37 36 36 37 38 35 32 33 35 35 35 34 34 35 36 36 36 38 40 41 43
33 34 34 34 35 37 38 40 41 42 44 46 49 51 51 49 48 46 45 44 42 40 39 37 37 38 36 32 32 34 35 35 35 35 35 35 35 37 38 39 41 45
37 37 37 38 38 39 41 42 42 43 45 47 50 51 50 49 48 47 46 45 44 42 40 36 34 36 36 32 32 34 36 37 37 35 34 33 34 37 38 40 43 46
40 40 41 42 42 42 43 43 42 43 45 48 49 49 49 50 48 47 46 46 44 41 38 35 33 35 36 33 32 35 39 40 37 33 32 34 36 37 38 41 43 44
Wind_Direction
266 264 263 264 265 268 269 269 274 280 283 283 283 287 295 301 304 306 307 309 311 311 310 309 310 310 311 310 311 312 311 309 304 299 295 292 289 287 285 286 288 289
264 260 258 259 262 266 269 270 278 285 287 287 286 286 291 296 299 301 302 304 307 310 310 309 308 309 310 310 310 311 310 308 305 300 295 289 287 288 287 285 285 285
261 258 256 257 260 265 269 273 279 285 286 287 287 288 291 295 297 299 301 302 306 310 310 307 307 309 310 311 311 311 310 307 304 301 298 290 285 286 287 285 283 283
257 256 256 257 262 265 267 273 278 282 283 284 286 290 293 296 300 304 306 307 309 310 309 308 309 311 311 311 311 312 310 307 305 303 301 294 285 283 285 284 281 282
254 255 257 260 263 265 266 272 279 282 282 283 286 290 295 299 303 307 309 311 311 311 311 311 311 311 310 309 310 311 309 305 305 305 301 294 286 282 283 283 282 283
253 253 256 261 263 264 268 274 280 284 284 286 289 292 296 300 303 305 308 310 311 312 313 313 313 312 311 309 308 310 310 305 302 301 297 290 285 284 284 283 283 284
250 250 255 260 262 266 272 277 280 284 286 288 291 293 296 300 302 305 308 310 313 314 314 315 313 311 309 308 307 307 309 306 297 292 289 284 282 284 285 283 282 283
247 250 254 258 264 272 279 280 279 282 288 295 299 299 298 301 304 308 311 313 314 314 314 312 310 309 308 309 309 307 305 303 293 283 281 280 281 283 283 283 283 283
246 249 253 259 267 275 280 280 283 290 297 301 304 304 302 302 306 309 310 312 313 314 313 311 310 309 309 309 310 307 302 300 292 279 276 278 281 282 282 283 283 284
245 249 254 260 266 273 281 288 295 301 304 303 303 303 304 306 308 308 308 310 312 313 312 311 309 307 305 304 306 305 300 297 291 281 278 279 281 282 281 281 283 286
247 252 258 263 269 279 291 301 303 304 309 310 305 303 307 309 306 305 307 310 312 312 311 311 310 309 307 303 300 298 296 294 291 287 284 283 284 283 281 280 283 286
251 256 261 269 278 289 301 308 307 309 317 318 309 307 312 313 309 309 311 312 313 314 313 312 313 314 313 307 294 289 292 291 289 288 285 283 284 284 280 279 282 286
255 259 267 276 285 295 306 311 310 311 317 320 316 314 316 318 318 318 317 316 316 314 312 312 314 314 314 309 297 295 294 288 286 286 284 283 283 282 280 279 281 284
260 266 274 282 290 299 308 312 310 310 315 319 317 314 313 315 317 319 320 318 315 312 309 311 312 308 303 301 301 300 296 289 287 287 285 284 283 282 281 280 281 283
267 273 279 286 295 304 309 310 310 311 314 316 315 312 311 311 314 317 318 317 313 309 306 307 307 302 298 296 296 297 296 293 292 291 288 287 285 283 281 281 281 282
272 278 284 292 300 307 308 307 308 308 309 310 311 309 309 309 311 312 314 313 311 307 302 301 301 299 297 296 294 293 293 295 296 293 290 287 286 284 282 282 282 282
276 283 290 298 304 308 309 308 306 304 303 304 306 306 307 308 308 308 308 309 308 305 301 299 297 295 296 297 294 291 292 297 298 295 290 287 286 285 284 284 284 285
279 286 294 300 304 307 308 307 305 303 303 304 305 305 305 304 303 303 303 304 305 303 300 297 295 294 295 295 292 290 294 299 300 296 292 288 286 286 287 287 287 289
282 289 296 298 299 302 303 304 305 305 306 306 305 303 301 299 297 296 296 298 301 300 297 295 294 293 293 290 289 291 295 299 299 296 293 288 286 286 287 287 289 291
285 291 296 296 296 297 298 300 302 302 303 303 303 302 300 296 293 292 292 295 296 296 295 294 293 293 291 289 289 291 294 296 296 293 290 287 284 283 283 286 289 292
286 291 293 294 294 293 294 296 297 297 298 299 301 301 301 298 295 292 292 292 293 294 294 294 292 291 290 289 290 291 293 293 292 291 290 287 284 283 283 285 287 291
288 290 291 292 292 291 292 293 293 294 295 298 300 301 301 301 299 296 293 290 290 292 293 294 292 290 291 292 291 291 291 291 291 292 290 288 286 286 287 286 285 287
290 290 290 290 289 289 289 290 290 292 296 299 301 301 301 301 300 298 294 290 289 290 292 294 293 291 293 295 292 291 291 292 293 294 292 289 288 290 291 289 287 287
288 287 287 287 286 286 287 287 288 291 296 299 300 300 301 300 299 297 294 291 291 292 294 296 295 293 294 295 293 291 291 292 294 294 291 289 289 291 291 290 289 289
284 284 284 283 283 283 284 286 288 290 293 296 297 298 300 300 299 296 294 294 294 294 295 297 296 293 294 295 294 291 292 294 294 291 289 288 289 292 294 294 294 295
281 281 281 280 279 280 283 287 288 289 292 294 295 296 299 301 300 296 295 296 297 295 296 296 294 292 294 296 295 293 294 294 291 287 287 290 293 296 297 298 298 299